CZ-3C DEB, 40206

Orbit data source: Space-Track

CZ-3C DEB, 40206 is space debris in HEO originally from a launch on Fri, 24 Feb 2012 UTC launched from the Xichang Space Center, China (XSC). Debris objects in space refer to the collection of defunct objects orbiting the Earth. Examples of debris include non-operational satellites, rocket bodies, and fragments generated from explosions, collisions, or faulty payload assembly.

Loading next visibility...
Identifier
40206, 2012-008R
Orbit
HEO
Country
Flag of CNCN / PRC
Related business
Manufacturer
CALT
Mission
Spacecraft
Bus & Motor
Unknown
Mass
Unknown
Launch date (UTC)
2012-02-24 (14 years ago)
Launch vehicle
Unknown
Launch site
Xichang Space Center, China (XSC)
Object type
Payload
Rocket body
Debris
Shape & HBR
Unknown shape, 0.1 m
Radar Cross Section
Medium (>0.1 m² and <1 m²)

Expand to show TLE details & history
Last TLE update: 17 hours ago

TLE from 17 hours ago
0 CZ-3C DEB
1 40206U 12008R   25348.17250735  .00000793  00000-0  71989-2 0  9990
2 40206  18.0290  67.1979 7252556 203.1844  91.6993  2.19190037 89799
Epoch: 2025-12-14T04:08Z
TLE epoch observation values (Epoch: 2025-12-14T04:08:24.635Z)
Latitude
-0°
Longitude
-77.99424°
Altitude
29,233.782 km
Speed
2.542 km/s
True Right ascension
04h 28m 47s
True Declination
0° 00' 00"
Sunlit
Object was in daylight at epoch
Visualization orbit readout
Latitude
Unknown
Longitude
Unknown
Altitude
Unknown
Speed
Unknown
Apparent Right ascension
Unknown
Apparent Declination
Unknown
Sunlit
N/A
Visualization observer readout
Local Sidereal Time
19:31:38
Azimuth
Unknown
Elevation
Unknown
Doppler factor
Unknown
Orbital elements
Apogee altitude
36,819.014 km
Perigee altitude
500.945 km
Semi-major axis
25,038.117 km
Eccentricity
0.72526
Inclination
18.029°
RAAN
67.1979°
Arg. of periapsis
203.1844°
True anomaly
156.78149°
Mean anomaly
91.6993°
Eccentric anomaly
125.52049°
Mean motion
0.54782 °/min
Orbital period
657.15 mins
BSTAR
0.0071989
Loading maneuver chart data...
Computing Atmospheric mass density...
Loading historical data...
Loading historical data...
Loading historical data...
Loading historical data...
Loading historical data...
Loading historical data...
Loading historical data...

Documentation

Showing up to 5 results
|